Terminal Aerodrome Forecast
Issued by NWS Upton, NY

Home | Current Version | Previous Version | Text Only | Print | Product List | Glossary On
Versions: 1 2 3 4 5 6 7 8 9 10 11 12 13 14 15 16 17 18 19 20 21 22 23 24 25 26 27
000
FTUS41 KOKX 180800 AAA
TAFJFK
TAF AMD
KJFK 180836Z 1809/1912 29019G28KT P6SM SCT035 BKN060
      TEMPO 1809/1811 BKN035
     FM182200 30014G20KT P6SM SCT035
     FM190200 31012KT P6SM SCT035=

USA.gov is the U.S. government's official web portal to all federal, state and local government web resources and services.